TimeCEST,TemperatureF,Dew PointF,Humidity,Sea Level PressureIn,VisibilityMPH,Wind Direction,Wind SpeedMPH,Gust SpeedMPH,PrecipitationIn,Events,Conditions,WindDirDegrees,DateUTC
12:25 AM,53.6,42.8,67,30.04,6.2,SE,12.7,-,N/A,,Unknown,130,2013-10-02 22:25:00
12:55 AM,53.6,42.8,67,30.04,6.2,ESE,10.4,-,N/A,,Unknown,120,2013-10-02 22:55:00
1:25 AM,51.8,42.8,71,30.04,6.2,ESE,10.4,-,N/A,,Unknown,120,2013-10-02 23:25:00
1:55 AM,51.8,42.8,71,30.04,6.2,ESE,10.4,-,N/A,,Unknown,110,2013-10-02 23:55:00
2:00 AM,51,42,62,30.04,15,ESE,11.2,,,,Partly Cloudy,110,2013-10-03 00:00:00
2:25 AM,51.8,41.0,67,30.04,6.2,ESE,10.4,-,N/A,,Unknown,110,2013-10-03 00:25:00
2:55 AM,50.0,41.0,71,30.04,6.2,ESE,10.4,-,N/A,,Unknown,110,2013-10-03 00:55:00
3:25 AM,50.0,41.0,71,30.01,6.2,ESE,10.4,-,N/A,,Unknown,110,2013-10-03 01:25:00
3:55 AM,50.0,41.0,71,30.01,6.2,ESE,10.4,-,N/A,,Unknown,110,2013-10-03 01:55:00
4:25 AM,50.0,41.0,71,30.01,6.2,ESE,9.2,-,N/A,,Unknown,110,2013-10-03 02:25:00
4:55 AM,50.0,41.0,71,30.01,6.2,ESE,8.1,-,N/A,,Unknown,120,2013-10-03 02:55:00
5:00 AM,49,40,63,30.02,19,ESE,8.9,,,,,110,2013-10-03 03:00:00
5:25 AM,50.0,41.0,71,30.01,6.2,ESE,9.2,-,N/A,,Unknown,120,2013-10-03 03:25:00
5:55 AM,48.2,39.2,71,30.01,6.2,ESE,10.4,-,N/A,,Unknown,110,2013-10-03 03:55:00
6:25 AM,48.2,39.2,71,29.98,6.2,ESE,10.4,-,N/A,,Unknown,110,2013-10-03 04:25:00
6:55 AM,48.2,39.2,71,29.98,6.2,ESE,9.2,-,N/A,,Unknown,110,2013-10-03 04:55:00
7:25 AM,48.2,39.2,71,29.98,6.2,ESE,8.1,-,N/A,,Unknown,120,2013-10-03 05:25:00
7:55 AM,48.2,39.2,71,29.98,6.2,ESE,9.2,-,N/A,,Unknown,110,2013-10-03 05:55:00
8:00 AM,48,39,61,30.00,17,ESE,8.9,,,,Partly Cloudy,110,2013-10-03 06:00:00
8:25 AM,48.2,39.2,71,29.98,6.2,ESE,10.4,-,N/A,,Unknown,110,2013-10-03 06:25:00
8:55 AM,48.2,39.2,71,29.98,6.2,ESE,11.5,-,N/A,,Unknown,120,2013-10-03 06:55:00
9:25 AM,50.0,39.2,66,29.98,6.2,ESE,10.4,-,N/A,,Unknown,110,2013-10-03 07:25:00
9:55 AM,50.0,41.0,71,29.98,6.2,ESE,10.4,-,N/A,,Unknown,110,2013-10-03 07:55:00
10:25 AM,51.8,41.0,67,29.98,6.2,ESE,12.7,-,N/A,,Unknown,110,2013-10-03 08:25:00
10:55 AM,53.6,41.0,62,29.98,6.2,ESE,13.8,-,N/A,,Unknown,110,2013-10-03 08:55:00
11:00 AM,54,42,54,30.00,17,ESE,13.4,,,,,110,2013-10-03 09:00:00
11:25 AM,55.4,42.8,63,29.98,6.2,ESE,13.8,-,N/A,,Unknown,110,2013-10-03 09:25:00
11:55 AM,55.4,42.8,63,29.98,6.2,ESE,13.8,-,N/A,,Unknown,110,2013-10-03 09:55:00
12:25 PM,57.2,42.8,59,29.98,6.2,East,13.8,-,N/A,,Unknown,100,2013-10-03 10:25:00
12:55 PM,59.0,44.6,59,29.95,6.2,ESE,15.0,-,N/A,,Unknown,110,2013-10-03 10:55:00
1:25 PM,59.0,44.6,59,29.95,6.2,ESE,13.8,-,N/A,,Unknown,110,2013-10-03 11:25:00
1:55 PM,60.8,44.6,55,29.95,6.2,ESE,16.1,-,N/A,,Unknown,110,2013-10-03 11:55:00
2:00 PM,60,44,44,29.96,15,ESE,15.7,,,,Partly Cloudy,110,2013-10-03 12:00:00
2:25 PM,60.8,44.6,55,29.95,6.2,ESE,15.0,-,N/A,,Unknown,110,2013-10-03 12:25:00
2:55 PM,62.6,46.4,55,29.92,6.2,ESE,17.3,-,N/A,,Unknown,110,2013-10-03 12:55:00
3:25 PM,62.6,44.6,52,29.92,6.2,ESE,16.1,-,N/A,,Unknown,110,2013-10-03 13:25:00
3:55 PM,62.6,44.6,52,29.92,6.2,ESE,17.3,-,N/A,,Unknown,110,2013-10-03 13:55:00
4:25 PM,62.6,46.4,55,29.92,6.2,ESE,16.1,-,N/A,,Unknown,110,2013-10-03 14:25:00
4:55 PM,62.6,44.6,52,29.92,-9999.0,ESE,12.7,-,N/A,,Haze,120,2013-10-03 14:55:00
5:00 PM,62,45,43,29.93,2,ESE,13.4,,,,Light Haze,120,2013-10-03 15:00:00
5:25 PM,60.8,44.6,55,29.92,6.2,ESE,10.4,-,N/A,,Unknown,110,2013-10-03 15:25:00
5:55 PM,60.8,46.4,59,29.89,6.2,ESE,12.7,-,N/A,,Unknown,110,2013-10-03 15:55:00
6:25 PM,60.8,46.4,59,29.89,6.2,ESE,15.0,-,N/A,,Unknown,120,2013-10-03 16:25:00
6:55 PM,60.8,44.6,55,29.89,6.2,ESE,15.0,-,N/A,,Unknown,110,2013-10-03 16:55:00
7:25 PM,60.8,46.4,59,29.89,6.2,ESE,13.8,-,N/A,,Unknown,110,2013-10-03 17:25:00
7:55 PM,60.8,46.4,59,29.89,6.2,ESE,12.7,-,N/A,,Unknown,120,2013-10-03 17:55:00
8:00 PM,60,46,50,29.90,19,ESE,13.4,,,Rain,Light Drizzle,110,2013-10-03 18:00:00
8:25 PM,60.8,46.4,59,29.89,6.2,ESE,11.5,-,N/A,Rain,Light Rain,120,2013-10-03 18:25:00
8:55 PM,60.8,48.2,63,29.89,6.2,ESE,10.4,-,N/A,,Partly Cloudy,120,2013-10-03 18:55:00
9:25 PM,60.8,48.2,63,29.89,6.2,ESE,9.2,-,N/A,,Partly Cloudy,120,2013-10-03 19:25:00
9:55 PM,60.8,50.0,68,29.92,6.2,SE,10.4,-,N/A,,Unknown,130,2013-10-03 19:55:00
10:25 PM,60.8,50.0,68,29.89,6.2,SE,11.5,-,N/A,,Partly Cloudy,130,2013-10-03 20:25:00
10:55 PM,60.8,50.0,68,29.89,6.2,SE,11.5,-,N/A,,Unknown,130,2013-10-03 20:55:00
11:00 PM,60,51,64,29.91,19,SE,11.2,,,Rain,Light Rain,130,2013-10-03 21:00:00
11:25 PM,60.8,50.0,68,29.89,6.2,SE,11.5,-,N/A,,Unknown,140,2013-10-03 21:25:00
11:55 PM,60.8,51.8,72,29.89,6.2,SE,13.8,-,N/A,,Unknown,140,2013-10-03 21:55:00